Location: Équennes
(49.7375°N, 1.9622°E)
Time: 08:09:38
(UTC+00:00)

IRIDIUM 103 - Visible Passes

Search period start: 24 September 2023 00:00
Search period end: 04 October 2023 00:00
Orbit: 776 x 779 km, 86.4° (Epoch: 23 September)

Date Brightness Start Highest point End Pass type
(mag) Time Alt. Az. Time Alt. Az. Time Alt. Az.
24 Sep 5.9 19:27:08 10° NNE 19:30:22 18° ENE 19:30:22 18° ENE visible
24 Sep 4.9 21:06:47 10° N 21:10:51 53° NNW 21:10:51 53° NNW visible
24 Sep 7.1 22:50:12 10° NW 22:51:19 11° WNW 22:51:19 11° WNW visible
25 Sep 6.3 18:55:26 10° NE 18:56:39 11° ENE 18:57:00 11° ENE visible
25 Sep 4.7 20:33:14 10° N 20:37:28 54° NNE 20:37:28 54° NNE visible
25 Sep 6.6 22:15:02 10° NNW 22:17:57 19° WNW 22:17:57 19° WNW visible
26 Sep 5.0 19:59:54 10° N 20:04:05 37° ENE 20:04:05 37° ENE visible
26 Sep 6.0 21:40:51 10° NNW 21:44:35 30° WNW 21:44:35 30° WNW visible
27 Sep 5.5 19:26:47 10° NNE 19:30:45 24° ENE 19:30:45 24° ENE visible
27 Sep 5.2 21:06:59 10° NNW 21:11:13 48° NW 21:11:13 48° NW visible
28 Sep 6.0 18:54:09 10° NNE 18:57:04 15° ENE 18:57:24 15° ENE visible
28 Sep 4.5 20:33:20 10° N 20:37:53 68° N 20:37:53 68° N visible
28 Sep 6.9 22:15:52 10° NW 22:18:21 14° WNW 22:18:21 14° WNW visible
29 Sep 4.5 19:59:52 10° N 20:04:33 52° ENE 20:04:33 52° ENE visible
29 Sep 6.3 21:41:17 10° NNW 21:45:02 23° WNW 21:45:02 23° WNW visible
30 Sep 5.1 19:26:35 10° NNE 19:31:14 32° ENE 19:31:14 32° ENE visible
30 Sep 5.5 21:07:15 10° NNW 21:11:43 38° WNW 21:11:43 38° WNW visible
01 Oct 5.6 18:53:38 10° NNE 18:57:26 20° ENE 18:57:57 20° ENE visible
01 Oct 4.6 20:33:29 10° N 20:38:26 65° WNW 20:38:26 65° WNW visible
02 Oct 6.1 18:21:26 10° NE 18:23:26 12° ENE 18:24:40 11° ENE visible
02 Oct 4.2 19:59:55 10° N 20:05:09 74° E 20:05:09 74° E visible
02 Oct 6.7 21:41:55 10° NW 21:45:16 17° WNW 21:45:38 17° W visible
03 Oct 4.6 19:26:31 10° N 19:31:31 44° E 19:31:54 43° E visible
03 Oct 6.0 21:07:37 10° NNW 21:12:03 29° W 21:12:24 28° W visible
